DIVER LSZS-LSZR

Flight info

Callsign DIVER
Flight time 0h 37m
Altitude 10000
Route PELAD DCT ARGAX DCT ELMUR DCT ROLSA
Aircraft DHC6/L-SDFGR/C

Departure

Time 2026-05-06 18:22
Airport Engadin Airport (LSZS)

Arrival

Time 2026-05-06 19:00
Airport Sankt Gallen Altenrhein Airport (LSZR)
Time Latitude Longitude Altitude Speed Heading
2026-05-06 18:01 46.53120 9.88031 5600 ft 0 kts 300°
2026-05-06 18:15 46.53113 9.88011 5607 ft 10 kts 215°
2026-05-06 18:16 46.53039 9.87951 5600 ft 7 kts 217°
2026-05-06 18:16 46.53009 9.87943 5600 ft 0 kts 146°
2026-05-06 18:16 46.52995 9.87966 5599 ft 9 kts 123°
2026-05-06 18:17 46.52971 9.88026 5599 ft 5 kts 120°
2026-05-06 18:17 46.52950 9.88078 5598 ft 5 kts 119°
2026-05-06 18:17 46.52942 9.88136 5604 ft 6 kts 64°
2026-05-06 18:17 46.53016 9.88207 5607 ft 20 kts 34°
2026-05-06 18:18 46.53139 9.88310 5602 ft 20 kts 27°
2026-05-06 18:18 46.53257 9.88406 5601 ft 20 kts 29°
2026-05-06 18:18 46.53421 9.88537 5600 ft 28 kts 29°
2026-05-06 18:18 46.53529 9.88623 5600 ft 17 kts 27°
2026-05-06 18:19 46.53633 9.88706 5606 ft 17 kts 30°
2026-05-06 18:19 46.53714 9.88774 5602 ft 13 kts 25°
2026-05-06 18:19 46.53800 9.88843 5600 ft 16 kts 30°
2026-05-06 18:19 46.53839 9.88873 5606 ft 5 kts 29°
2026-05-06 18:20 46.53891 9.88916 5601 ft 15 kts 29°
2026-05-06 18:20 46.53986 9.88995 5602 ft 15 kts 30°
2026-05-06 18:20 46.54039 9.89014 5601 ft 1 kts 327°
2026-05-06 18:20 46.54046 9.89004 5607 ft 0 kts 309°
2026-05-06 18:21 46.54048 9.89000 5606 ft 5 kts 305°
2026-05-06 18:21 46.54057 9.88918 5602 ft 3 kts 210°
2026-05-06 18:21 46.54053 9.88914 5602 ft 1 kts 211°
2026-05-06 18:21 46.54006 9.88877 5607 ft 31 kts 210°
2026-05-06 18:22 46.53472 9.88446 5610 ft 98 kts 204°
2026-05-06 18:22 46.52861 9.87926 6020 ft 102 kts 208°
2026-05-06 18:22 46.52464 9.87607 6465 ft 90 kts 202°
2026-05-06 18:22 46.51902 9.87110 6777 ft 106 kts 212°
2026-05-06 18:23 46.51289 9.86383 7049 ft 113 kts 217°
2026-05-06 18:23 46.50691 9.85634 7405 ft 113 kts 216°
2026-05-06 18:23 46.50129 9.84836 7783 ft 114 kts 221°
2026-05-06 18:23 46.49545 9.84097 8166 ft 121 kts 218°
2026-05-06 18:24 46.48874 9.83170 8401 ft 134 kts 225°
2026-05-06 18:24 46.48229 9.82225 8808 ft 135 kts 217°
2026-05-06 18:24 46.47499 9.81402 9186 ft 131 kts 215°
2026-05-06 18:24 46.46788 9.80585 9560 ft 129 kts 216°
2026-05-06 18:25 46.46086 9.79764 9938 ft 127 kts 217°
2026-05-06 18:25 46.45406 9.78966 10279 ft 127 kts 217°
2026-05-06 18:25 46.44731 9.78177 10672 ft 123 kts 218°
2026-05-06 18:25 46.44077 9.77407 11075 ft 119 kts 217°
2026-05-06 18:26 46.43448 9.76664 11482 ft 114 kts 217°
2026-05-06 18:26 46.42844 9.75957 11886 ft 109 kts 217°
2026-05-06 18:26 46.42278 9.75266 12301 ft 104 kts 226°
2026-05-06 18:26 46.42003 9.74356 12692 ft 109 kts 277°
2026-05-06 18:27 46.42663 9.73702 13035 ft 134 kts 354°
2026-05-06 18:27 46.43583 9.73675 13448 ft 130 kts 344°
2026-05-06 18:27 46.44503 9.73561 13841 ft 138 kts 352°
2026-05-06 18:27 46.45457 9.73522 14152 ft 136 kts 350°
2026-05-06 18:28 46.46393 9.73462 14452 ft 133 kts 351°
2026-05-06 18:28 46.47326 9.73405 14758 ft 134 kts 350°
2026-05-06 18:28 46.48246 9.73352 15102 ft 134 kts 351°
2026-05-06 18:28 46.49174 9.73286 15407 ft 134 kts 350°
2026-05-06 18:29 46.50110 9.73225 15727 ft 135 kts 350°
2026-05-06 18:29 46.51065 9.73164 15931 ft 146 kts 351°
2026-05-06 18:29 46.52151 9.73096 15957 ft 164 kts 352°
2026-05-06 18:29 46.53344 9.73014 15964 ft 181 kts 352°
2026-05-06 18:30 46.54639 9.72929 16001 ft 188 kts 352°
2026-05-06 18:30 46.55968 9.72842 16024 ft 193 kts 353°
2026-05-06 18:30 46.57330 9.72752 16016 ft 198 kts 353°
2026-05-06 18:30 46.58711 9.72662 16017 ft 199 kts 353°
2026-05-06 18:31 46.60067 9.72368 16008 ft 194 kts 331°
2026-05-06 18:31 46.61193 9.71350 16007 ft 191 kts 320°
2026-05-06 18:31 46.62305 9.70310 16005 ft 194 kts 321°
2026-05-06 18:31 46.63448 9.69245 16003 ft 197 kts 321°
2026-05-06 18:32 46.64600 9.68159 15998 ft 197 kts 320°
2026-05-06 18:32 46.65757 9.67070 15997 ft 198 kts 321°
2026-05-06 18:32 46.66915 9.65980 15996 ft 198 kts 320°
2026-05-06 18:32 46.68075 9.64887 15952 ft 200 kts 321°
2026-05-06 18:33 46.69250 9.63780 15929 ft 201 kts 321°
2026-05-06 18:33 46.70416 9.62681 15928 ft 199 kts 321°
2026-05-06 18:33 46.71578 9.61585 15924 ft 198 kts 320°
2026-05-06 18:33 46.72733 9.60493 15921 ft 198 kts 320°
2026-05-06 18:34 46.73895 9.59399 15918 ft 198 kts 320°
2026-05-06 18:34 46.75037 9.58317 15918 ft 198 kts 320°
2026-05-06 18:34 46.76210 9.57208 15916 ft 198 kts 320°
2026-05-06 18:34 46.77356 9.56125 15914 ft 199 kts 320°
2026-05-06 18:35 46.78519 9.55025 15910 ft 199 kts 321°
2026-05-06 18:35 46.79680 9.53926 15910 ft 199 kts 320°
2026-05-06 18:35 46.80838 9.52829 15906 ft 197 kts 320°
2026-05-06 18:35 46.81982 9.51744 15906 ft 195 kts 320°
2026-05-06 18:36 46.83122 9.50664 15907 ft 195 kts 320°
2026-05-06 18:36 46.84256 9.49586 15907 ft 194 kts 320°
2026-05-06 18:36 46.85390 9.48511 15911 ft 195 kts 320°
2026-05-06 18:36 46.86530 9.47428 15909 ft 195 kts 320°
2026-05-06 18:37 46.87655 9.46360 15908 ft 196 kts 320°
2026-05-06 18:37 46.88796 9.45273 15908 ft 195 kts 320°
2026-05-06 18:37 46.89941 9.44185 15909 ft 196 kts 320°
2026-05-06 18:37 46.91085 9.43097 15915 ft 196 kts 321°
2026-05-06 18:38 46.92231 9.42006 15909 ft 197 kts 321°
2026-05-06 18:38 46.93380 9.40909 15911 ft 197 kts 321°
2026-05-06 18:38 46.94534 9.39809 15912 ft 198 kts 321°
2026-05-06 18:38 46.95688 9.38710 15908 ft 199 kts 321°
2026-05-06 18:39 46.96845 9.37606 15913 ft 198 kts 321°
2026-05-06 18:39 46.97995 9.36511 15912 ft 196 kts 321°
2026-05-06 18:39 46.99140 9.35413 15907 ft 197 kts 321°
2026-05-06 18:40 47.01404 9.33251 15911 ft 194 kts 321°
2026-05-06 18:40 47.02532 9.32172 15909 ft 193 kts 321°
2026-05-06 18:40 47.03659 9.31092 15909 ft 193 kts 321°
2026-05-06 18:40 47.04753 9.29975 15904 ft 187 kts 311°
2026-05-06 18:41 47.05393 9.28399 15898 ft 178 kts 285°
2026-05-06 18:41 47.05851 9.26712 15906 ft 179 kts 286°
2026-05-06 18:41 47.06324 9.25007 15905 ft 181 kts 286°
2026-05-06 18:41 47.06794 9.23295 15922 ft 180 kts 286°
2026-05-06 18:42 47.07264 9.21584 15926 ft 181 kts 286°
2026-05-06 18:42 47.07733 9.19875 15920 ft 181 kts 286°
2026-05-06 18:42 47.08203 9.18160 15915 ft 180 kts 286°
2026-05-06 18:42 47.08667 9.16463 15921 ft 179 kts 286°
2026-05-06 18:43 47.09126 9.14789 15926 ft 172 kts 286°
2026-05-06 18:43 47.09579 9.13155 15924 ft 174 kts 286°
2026-05-06 18:43 47.10028 9.11507 15923 ft 175 kts 286°
2026-05-06 18:43 47.10485 9.09840 15930 ft 177 kts 286°
2026-05-06 18:44 47.10936 9.08177 15953 ft 179 kts 287°
2026-05-06 18:44 47.11401 9.06477 15948 ft 179 kts 287°
2026-05-06 18:44 47.11865 9.04781 15920 ft 180 kts 287°
2026-05-06 18:44 47.12341 9.03016 15493 ft 190 kts 287°
2026-05-06 18:45 47.12834 9.01224 15425 ft 187 kts 287°
2026-05-06 18:45 47.13329 8.99408 15145 ft 195 kts 287°
2026-05-06 18:45 47.13838 8.97533 14855 ft 199 kts 287°
2026-05-06 18:45 47.14353 8.95644 14600 ft 199 kts 288°
2026-05-06 18:46 47.14864 8.93761 14396 ft 198 kts 288°
2026-05-06 18:46 47.15464 8.91948 14171 ft 200 kts 303°
2026-05-06 18:46 47.16603 8.90754 13939 ft 206 kts 334°
2026-05-06 18:46 47.18035 8.90412 13721 ft 211 kts 351°
2026-05-06 18:47 47.19498 8.90225 13488 ft 212 kts 351°
2026-05-06 18:47 47.20966 8.90028 13247 ft 212 kts 351°
2026-05-06 18:47 47.22437 8.89825 13019 ft 212 kts 350°
2026-05-06 18:47 47.23873 8.89628 13004 ft 203 kts 350°
2026-05-06 18:48 47.25265 8.89434 12995 ft 199 kts 350°
2026-05-06 18:48 47.26637 8.89242 12999 ft 198 kts 350°
2026-05-06 18:48 47.28002 8.89106 12990 ft 197 kts 359°
2026-05-06 18:48 47.29297 8.89830 12888 ft 207 kts 34°
2026-05-06 18:49 47.30257 8.91460 12609 ft 216 kts 54°
2026-05-06 18:49 47.31135 8.93262 12374 ft 221 kts 54°
2026-05-06 18:49 47.32050 8.95114 12113 ft 223 kts 54°
2026-05-06 18:49 47.32967 8.96964 11847 ft 225 kts 53°
2026-05-06 18:50 47.33901 8.98846 11506 ft 228 kts 53°
2026-05-06 18:50 47.34848 9.00760 11073 ft 234 kts 54°
2026-05-06 18:50 47.35815 9.02720 10630 ft 237 kts 53°
2026-05-06 18:50 47.36788 9.04688 10204 ft 239 kts 53°
2026-05-06 18:51 47.37769 9.06675 9767 ft 239 kts 53°
2026-05-06 18:51 47.38739 9.08642 9302 ft 240 kts 53°
2026-05-06 18:51 47.39722 9.10632 8838 ft 240 kts 53°
2026-05-06 18:51 47.40706 9.12629 8377 ft 240 kts 53°
2026-05-06 18:52 47.41685 9.14618 7905 ft 239 kts 53°
2026-05-06 18:52 47.42658 9.16596 7465 ft 237 kts 52°
2026-05-06 18:52 47.43628 9.18567 7028 ft 237 kts 52°
2026-05-06 18:52 47.44593 9.20530 6590 ft 234 kts 52°
2026-05-06 18:53 47.45510 9.22398 6171 ft 216 kts 52°
2026-05-06 18:53 47.46377 9.24164 5719 ft 209 kts 52°
2026-05-06 18:53 47.47216 9.25871 5271 ft 206 kts 52°
2026-05-06 18:53 47.48052 9.27573 5000 ft 189 kts 51°
2026-05-06 18:54 47.48748 9.29005 4967 ft 165 kts 50°
2026-05-06 18:54 47.49400 9.30330 4914 ft 146 kts 50°
2026-05-06 18:54 47.49964 9.31478 4908 ft 134 kts 50°
2026-05-06 18:54 47.50484 9.32538 4901 ft 122 kts 49°
2026-05-06 18:55 47.50937 9.33566 4869 ft 118 kts 70°
2026-05-06 18:55 47.51035 9.34745 4837 ft 112 kts 99°
2026-05-06 18:55 47.50867 9.35827 4812 ft 107 kts 111°
2026-05-06 18:55 47.50770 9.36915 4783 ft 104 kts 103°
2026-05-06 18:56 47.50684 9.38031 4625 ft 113 kts 103°
2026-05-06 18:56 47.50585 9.39213 4454 ft 117 kts 103°
2026-05-06 18:56 47.50481 9.40414 4315 ft 118 kts 103°
2026-05-06 18:56 47.50376 9.41598 4158 ft 115 kts 104°
2026-05-06 18:57 47.50268 9.42765 4003 ft 114 kts 104°
2026-05-06 18:57 47.50158 9.43931 3848 ft 114 kts 105°
2026-05-06 18:57 47.50043 9.45091 3636 ft 119 kts 105°
2026-05-06 18:57 47.49911 9.46317 3367 ft 122 kts 104°
2026-05-06 18:58 47.49774 9.47554 3098 ft 122 kts 104°
2026-05-06 18:58 47.49596 9.48774 2781 ft 125 kts 108°
2026-05-06 18:58 47.49367 9.50111 2321 ft 139 kts 107°
2026-05-06 18:58 47.49140 9.51459 2100 ft 129 kts 108°
2026-05-06 18:59 47.48921 9.52648 1907 ft 113 kts 104°
2026-05-06 18:59 47.48784 9.53653 1661 ft 85 kts 101°
2026-05-06 18:59 47.48693 9.54458 1424 ft 88 kts 101°
2026-05-06 18:59 47.48581 9.55267 1354 ft 69 kts 98°
2026-05-06 19:00 47.48514 9.55860 1316 ft 47 kts 97°
2026-05-06 19:00 47.48472 9.56275 1312 ft 36 kts 95°
2026-05-06 19:00 47.48436 9.56612 1311 ft 30 kts 100°
2026-05-06 19:00 47.48414 9.56807 1311 ft 28 kts 98°
2026-05-06 19:01 47.48416 9.57057 1314 ft 15 kts 44°
2026-05-06 19:01 47.48531 9.57088 1312 ft 18 kts 344°
2026-05-06 19:01 47.48569 9.56922 1312 ft 19 kts 276°
2026-05-06 19:01 47.48590 9.56722 1312 ft 20 kts 279°
2026-05-06 19:02 47.48612 9.56507 1312 ft 22 kts 277°
2026-05-06 19:02 47.48635 9.56283 1312 ft 22 kts 279°
2026-05-06 19:02 47.48661 9.56055 1312 ft 23 kts 279°
2026-05-06 19:02 47.48681 9.55856 1312 ft 20 kts 279°
2026-05-06 19:03 47.48704 9.55642 1312 ft 22 kts 278°
2026-05-06 19:03 47.48718 9.55469 1312 ft 18 kts 277°
2026-05-06 19:03 47.48738 9.55331 1312 ft 11 kts 287°
2026-05-06 19:03 47.48718 9.55246 1312 ft 9 kts 200°
2026-05-06 19:04 47.48726 9.55220 1312 ft 0 kts